Flag for U.S.A. Weather past 2 weeks in St. Louis, Missouri, U.S.A.

Now
50 °F

Passing clouds.


Feels Like: 48 °F
Forecast: 44 / 66 °F
Wind: 5 mph from East

Location: Lambert-St. Louis International Airport

Current Time: Apr 28, 2015 at 3:02:45 AM

Latest Report: Apr 28, 2015 at 1:51 AM


Visibility: 10 mi

Pressure: 30.11 "Hg

Humidity: 63%

Dew point: 38 °F

Location of St. LouisLocation

Historic Weather in St. Louis — Graph

°F

St. Louis temperature yesterday

Maximum temperature yesterday: 67 °F (at 3:51 PM)
Minimum temperature yesterday: 43 °F (at 4:51 AM)
Average temperature yesterday: 56 °F

Past Weeks' High & Low Weather Summary

 TemperatureHumidityPressure
High79 °F (Apr 17, 3:51 PM)94% (Apr 25, 6:59 AM)30.24 "Hg (Apr 25, 6:59 AM)
Low39 °F (Apr 23, 4:51 AM)22% (Apr 23, 1:51 PM)29.46 "Hg (Apr 25, 12:51 PM)
Average60 °F55%29.93 "Hg
* Reported Apr 13 1:51 AM — Apr 28 1:51 AM, St. Louis, Weather by CustomWeather, © 2015

Note: Actual official high and low records may vary slightly from our data, if they occured in-between our weather recording intervals... More about our weather records

Advertising

St. Louis weather history for previous 24 hours

 ConditionsComfort  
Time TempWeatherWind HumidityBarometerVisibility
1:51 AM
Tue, Apr 28
50 °FPassing clouds.5 mph63%30.11 "Hg10 mi
12:51 AM51 °FClear.5 mph61%30.10 "Hg10 mi
11:51 PM
Mon, Apr 27
52 °FPassing clouds.7 mph61%30.09 "Hg10 mi
10:51 PM56 °FPassing clouds.6 mph49%30.09 "Hg10 mi
9:51 PM58 °FPassing clouds.6 mph46%30.08 "Hg10 mi
8:51 PM59 °FPassing clouds.7 mph42%30.06 "Hg10 mi
7:51 PM62 °FPartly sunny.7 mph37%30.05 "Hg10 mi
6:51 PM64 °FPartly sunny.10 mph35%30.04 "Hg10 mi
5:51 PM65 °FPartly sunny.13 mph33%30.04 "Hg10 mi
4:51 PM67 °FPartly sunny.13 mph32%30.04 "Hg10 mi
3:51 PM67 °FScattered clouds.18 mph31%30.04 "Hg10 mi
2:51 PM66 °FScattered clouds.14 mph32%30.06 "Hg10 mi
1:51 PM64 °FScattered clouds.10 mph35%30.09 "Hg10 mi
12:51 PM63 °FScattered clouds.14 mph35%30.11 "Hg10 mi
11:51 AM60 °FPartly sunny.10 mph39%30.14 "Hg10 mi
10:51 AM59 °FOvercast.10 mph41%30.16 "Hg10 mi
9:51 AM55 °FHigh level clouds.7 mph42%30.15 "Hg10 mi
8:51 AM52 °FHigh level clouds.6 mph47%30.10 "Hg10 mi
7:51 AM48 °FHigh level clouds.8 mph56%30.08 "Hg10 mi
6:51 AM45 °FPassing clouds.5 mph63%30.07 "Hg10 mi
5:51 AM43 °FPassing clouds.5 mph68%30.06 "Hg10 mi
4:51 AM43 °FPassing clouds.No wind68%30.04 "Hg10 mi
3:51 AM44 °FClear.No wind68%30.04 "Hg10 mi
Weather by CustomWeather, © 2015

See weather overviewHow to use our weather pages